Measurement date,Total daily rainfall,Maximum daily air temperature,Minimum daily air temperature
Date ,Rainfall,Air temperature,Air temperature
Units: Year month day,Units: millimetre,Units: degree Celsius,Units: degree Celsius
2011-01-01,2.7,7.8,3.7
2011-01-02,0,2.8,0.5
2011-01-03,0.3,1.7,-2
2011-01-04,3.6,6.7,-4.5
2011-01-05,4.5,6.4,0.7
2011-01-06,2.2,4.8,-1.6
2011-01-07,9,7.4,-3
2011-01-08,0.2,5.6,0.8
2011-01-09,0.1,6.7,0.2
2011-01-10,4.2,8.6,-1.7
2011-01-11,4.2,8.7,5.1
2011-01-12,3,12.2,0.4
2011-01-13,6.5,12.4,7.5
2011-01-14,0.8,11.6,8.6
2011-01-15,0.1,12.2,6
2011-01-16,5.5,12.4,10.3
2011-01-17,1.9,9,2.8
2011-01-18,0.1,7.7,-0.4
2011-01-19,0.2,7,-2.8
2011-01-20,0.2,3.1,-5.1
2011-01-21,0.1,3.4,-4.7
2011-01-22,0.1,4.2,-4.6
2011-01-23,0,6.6,-1.6
2011-01-24,0.1,7.4,1.3
2011-01-25,2,8.5,2.5
2011-01-26,0.1,5.9,5.1
2011-01-27,0,2.2,0.7
2011-01-28,0,2.1,-0.9
2011-01-29,0,0.7,-5
2011-01-30,0,3.5,-2.7
2011-01-31,0.3,5.8,-8.4
2011-02-01,0.1,10.7,-6.6
2011-02-02,0.8,10.7,0.5
2011-02-03,0.5,11.2,2.1
2011-02-04,0,12.4,3.4
2011-02-05,1.9,12.5,11
2011-02-06,0,12.1,10.4
2011-02-07,0.4,12,9.4
2011-02-08,1,9.4,-3.7
2011-02-09,1.9,10.5,-1.3
2011-02-10,0.6,9.7,7.1
2011-02-11,1.2,12.5,6.4
2011-02-12,0.2,10.2,3.6
2011-02-13,5.1,8.9,2.6
2011-02-14,0.8,7.8,1.5
2011-02-15,2.5,6.3,-0.5
2011-02-16,0,7.9,-1.2
2011-02-17,0,7.8,1
2011-02-18,7.4,6.3,4.1
2011-02-19,0.1,6,3.1
2011-02-20,1.3,5.4,3.5
2011-02-21,2.2,5.2,3.5
2011-02-22,2.3,8.8,3
2011-02-23,0.1,12.3,4.5
2011-02-24,0,12.5,7.7
2011-02-25,11.1,12.5,8.2
2011-02-26,0.9,10.1,6.7
2011-02-27,1,8.8,1.1
2011-02-28,0,5.9,2
2011-03-01,0,7.6,1.9
2011-03-02,0,6.4,1.1
2011-03-03,0,5.2,-3
2011-03-04,0.1,5.7,-0.3
2011-03-05,0.5,6.7,-4.4
2011-03-06,0,6.3,-1.1
2011-03-07,0.1,8.3,-4.7
2011-03-08,0.9,9.3,-5.9
2011-03-09,0.0,9.8,-0.2
2011-03-10,0.2,12.6,6.2
2011-03-11,0.0,10.3,1.2
2011-03-12,0.0,12,6
2011-03-13,3.8,10.2,4.2
2011-03-14,0.2,10.8,-4.4
2011-03-15,0.0,10.9,2.4
2011-03-16,0.0,9.2,6.1
2011-03-17,0.4,12.1,4.7
2011-03-18,0.0,10.6,2.2
2011-03-19,0.2,12.9,-3.9
2011-03-20,0.0,12.9,4.1
2011-03-21,0.0,15.4,5.9
2011-03-22,0.0,15.8,2.3
2011-03-23,0.0,16.8,1.8
2011-03-24,0.0,16.7,0.3
2011-03-25,0.0,17.4,0.4
2011-03-26,0.0,9.1,-0.3
2011-03-27,0.0,10.5,5
2011-03-28,0.0,13.7,-0.5
2011-03-29,0.4,12.8,1.1
2011-03-30,1.8,13.8,7.7
2011-03-31,2.6,16.3,8.2
2011-04-01,0.2,15.7,11.2
2011-04-02,0.2,15.4,10.9
2011-04-03,1.2,13.7,3.8
2011-04-04,0.0,12.8,2.9
2011-04-05,0.0,14.8,7.9
2011-04-06,0.0,21.1,11.3
2011-04-07,0.0,17.7,5.8
2011-04-08,0.2,19,2.5
2011-04-09,0.0,20.4,2.4
2011-04-10,0.0,19.6,3.7
2011-04-11,0.0,15.3,5.5
2011-04-12,0.0,13.5,2.8
2011-04-13,1.2,10.8,2.9
2011-04-14,0.0,13.6,6.9
2011-04-15,0.0,15,8.3
2011-04-16,0.0,17.4,3.9
2011-04-17,0.0,18.8,3.3
2011-04-18,0.0,17.1,4.6
2011-04-19,0.0,20.7,2.3
2011-04-20,0.0,21.3,2.2
2011-04-21,0.0,23.2,7.1
2011-04-22,0.0,23.5,7.9
2011-04-23,0.0,21.9,8.4
2011-04-24,0.0,18.2,6.6
2011-04-25,0.0,18.7,4.1
2011-04-26,0.0,13.9,6.4
2011-04-27,0.0,16.1,7.3
2011-04-28,0.0,17,-0.8
2011-04-29,0.6,18.2,6.4
2011-04-30,0.0,19.8,7.6
2011-05-01,0.0,19.3,6.5
2011-05-02,0.0,16.7,6.4
2011-05-03,0.0,15.7,1.2
2011-05-04,0.0,17.4,-0.2
2011-05-05,0.0,18.5,7.5
2011-05-06,0.0,22,10.5
2011-05-07,5.2,20.2,12.1
2011-05-08,15.2,18.1,13.6
2011-05-09,0.2,18.3,8.4
2011-05-10,3.4,17.9,7.6
2011-05-11,0.0,17.4,9.8
2011-05-12,0.0,15.8,6.4
2011-05-13,0.0,15.4,4.4
2011-05-14,0.2,15.4,2.1
2011-05-15,0.2,14.9,4.8
2011-05-16,0.2,17.6,10.5
2011-05-17,0.0,17.7,11
2011-05-18,0.0,15.8,12.4
2011-05-19,0.6,16.6,2.3
2011-05-20,0.0,17.9,7.4
2011-05-21,0.0,18.5,3.8
2011-05-22,2.4,16.3,8.4
2011-05-23,0.2,15.3,8.7
2011-05-24,1.0,16.5,6.7
2011-05-25,0.0,18.1,3.1
2011-05-26,0.0,15.4,9.5
2011-05-27,0.8,15.5,8.7
2011-05-28,0.0,17.1,9.9
2011-05-29,0.2,17.4,11.8
2011-05-30,6.2,14.1,9.5
2011-05-31,3.2,16.6,4.5
2011-06-01,0.0,18.4,5.3
2011-06-02,0.0,21.3,8
2011-06-03,0.0,24.3,7.4
2011-06-04,0.0,22.9,8.1
2011-06-05,1.4,15.9,10.1
2011-06-06,1.2,17.9,7.7
2011-06-07,0.0,17.1,5.2
2011-06-08,0.6,16.6,8.2
2011-06-09,0.2,16.7,8.7
2011-06-10,1.4,15.4,5.7
2011-06-11,2.2,16.1,2.7
2011-06-12,2.6,16.5,0.9
2011-06-13,5.8,18,8.8
2011-06-14,0.0,20.8,4.3
2011-06-15,0.0,20.2,13.3
2011-06-16,0.8,17.8,8.3
2011-06-17,0.2,16.1,8.7
2011-06-18,2.8,16.9,8.7
2011-06-19,5.4,17.3,9.7
2011-06-20,0.0,20,3.2
2011-06-21,2.8,19.6,13
2011-06-22,0.2,19.2,12.1
2011-06-23,0.6,17.3,9.9
2011-06-24,0.2,17.1,7
2011-06-25,7.0,20.9,10
2011-06-26,0.0,27.2,13.3
2011-06-27,0.0,26.4,14.3
2011-06-28,8.0,18.8,9.6
2011-06-29,0.0,19.1,5.5
2011-06-30,0.0,18.5,4.6
2011-07-01,0,19.5,6.2
2011-07-02,0.0,21.3,6.9
2011-07-03,0.0,23.1,9
2011-07-04,0.0,24.9,11.7
2011-07-05,2.2,20.1,12.6
2011-07-06,14.0,19.3,11.3
2011-07-07,8.4,19.7,11.8
2011-07-08,2.4,18,10.9
2011-07-09,2.0,21.7,10.6
2011-07-10,2.4,21.1,8.2
2011-07-11,0.0,21.8,7.4
2011-07-12,0.0,20,11.8
2011-07-13,0.0,19.2,10.6
2011-07-14,0.0,22.9,6.7
2011-07-15,0.4,22.2,7.9
2011-07-16,6.2,19.4,13.8
2011-07-17,1.2,18,11.9
2011-07-18,0.2,17.2,12.9
2011-07-19,0.8,18.8,11.1
2011-07-20,0.0,18.7,11.8
2011-07-21,0.0,19.5,11.4
2011-07-22,0.8,18.4,11.4
2011-07-23,0.2,20,6.9
2011-07-24,0.0,21.9,6.9
2011-07-25,0.0,23,4.6
2011-07-26,0.2,22,11.7
2011-07-27,0.0,22.3,10.5
2011-07-28,0.0,22.4,10
2011-07-29,5.0,17.5,13.9
2011-07-30,0.0,21.7,9.2
2011-07-31,0.0,23.8,13
2011-08-01,0,24.3,16.7
2011-08-02,0.0,24,14.8
2011-08-03,0.0,26.2,12.6
2011-08-04,6.4,22.7,14.4
2011-08-05,0.0,22.4,14
2011-08-06,0.8,20,11.1
2011-08-07,2.0,19.5,10
2011-08-08,0.2,19.2,9
2011-08-09,0.0,19.6,9.4
2011-08-10,0.0,20.6,9.8
2011-08-11,2.2,22.4,15
2011-08-12,0.0,20.8,15
2011-08-13,0.0,21.1,14.8
2011-08-14,0.0,20.4,11.9
2011-08-15,0.0,20.9,6.3
2011-08-16,0.0,21.8,12.8
2011-08-17,0.0,19.9,6.6
2011-08-18,0.0,18,6.4
2011-08-19,0.0,22.1,4.8
2011-08-20,0.0,20.3,12.9
2011-08-21,0.0,23.2,13.5
2011-08-22,0.0,22.8,8.2
2011-08-23,0.0,21.2,13.7
2011-08-24,0.0,21.2,9
2011-08-25,8.0,20.2,8.9
2011-08-26,3.6,16.8,10.4
2011-08-27,0.6,18.2,9.1
2011-08-28,1.0,18.9,10.7
2011-08-29,0.2,16.2,8.7
2011-08-30,0.0,15.9,11
2011-08-31,0.8,18,7.5
2011-09-01,0.0,21.9,5.4
2011-09-02,0.0,22.9,9.6
2011-09-03,0.2,22,12.7
2011-09-04,1.8,20.3,13.1
2011-09-05,0.2,18.9,9.4
2011-09-06,0.0,17.7,12.3
2011-09-07,0.2,17.4,12.1
2011-09-08,1.4,20.7,12.1
2011-09-09,0.0,21.7,13.2
2011-09-10,3.8,22.7,17
2011-09-11,0.8,19.2,12.2
2011-09-12,0.8,19.3,13.5
2011-09-13,0.2,18.3,11.9
2011-09-14,0.0,18.7,8.7
2011-09-15,0.0,18.3,5.3
2011-09-16,0.2,19.7,7.6
2011-09-17,3.2,17.3,11.9
2011-09-18,6.0,17.2,6.6
2011-09-19,0.0,17.6,7.4
2011-09-20,5.4,17.3,13
2011-09-21,0.2,17.2,5.9
2011-09-22,0.0,16.3,8.1
2011-09-23,0.0,18.7,9.1
2011-09-24,0.0,18.4,9.1
2011-09-25,2.2,19.1,12.5
2011-09-26,1.6,19.1,10.9
2011-09-27,0.0,21.7,7.4
2011-09-28,0.2,25.7,10.8
2011-09-29,0.0,27,10.9
2011-09-30,0.0,27.3,10.2
2011-10-01,0.0,27.9,10.9
2011-10-02,0.0,24.4,9.8
2011-10-03,0.2,24.9,15.5
2011-10-04,0.2,17.8,9.3
2011-10-05,0.0,19.6,13.6
2011-10-06,2.8,13.8,8.6
2011-10-07,0.8,15.9,8.2
2011-10-08,0.0,16.9,8.1
2011-10-09,0.0,19.7,11.4
2011-10-10,0.2,18.8,14.9
2011-10-11,0.0,17.9,15.3
2011-10-12,0.0,19.4,12.9
2011-10-13,0.0,17.2,10.5
2011-10-14,0.6,17.3,12.9
2011-10-15,0.2,15.8,1
2011-10-16,0.0,17.4,2.6
2011-10-17,0.0,14.9,7.5
2011-10-18,2.8,12.2,3.8
2011-10-19,0.0,11.3,3.6
2011-10-20,0.4,12.2,0.5
2011-10-21,0.0,14.4,4.7
2011-10-22,0.0,14,6.8
2011-10-23,0.0,18.8,9.6
2011-10-24,0.0,17.4,13.5
2011-10-25,0.2,14.4,10.1
2011-10-26,2.4,13.4,2.3
2011-10-27,3.2,11.6,5
2011-10-28,6.4,13.4,1.6
2011-10-29,0.0,14.1,1.7
2011-10-30,2.0,17.1,7.6
2011-10-31,1.0,16.5,12.7
2011-11-01,0.0,14.7,8.7
2011-11-02,2.2,14.7,6.2
2011-11-03,9.4,16.3,10.8
2011-11-04,7.8,14.7,10.4
2011-11-05,0.0,12.5,8.7
2011-11-06,0.2,11.5,3.8
2011-11-07,0.2,9.9,-1.9
2011-11-08,2.0,10.2,3.5
2011-11-09,0.8,13.9,8.8
2011-11-10,1.2,13.5,9.8
2011-11-11,10.6,12,9
2011-11-12,0.2,14.6,6.7
2011-11-13,0.0,15.5,9.1
2011-11-14,0.2,9.7,7.2
2011-11-15,0.2,10.1,7.2
2011-11-16,0.8,8.2,5
2011-11-17,0.4,13,2.9
2011-11-18,0.0,14,4.6
2011-11-19,0.0,10.8,5.1
2011-11-20,0.2,9.8,2.9
2011-11-21,11.2,10.2,7.9
2011-11-22,1.4,11.8,8.1
2011-11-23,0.2,12.4,-0.9
2011-11-24,0.0,14,5.2
2011-11-25,1.8,11.3,6.6
2011-11-26,0.0,13.5,4.5
2011-11-27,0.0,10.8,9.6
2011-11-28,0.0,13.4,0.2
2011-11-29,1.2,13.6,5.8
2011-11-30,7.8,11.1,3.4
2011-12-01,3.4,8,3.5
2011-12-02,1.0,11.6,-1.2
2011-12-03,0.2,10.2,0.8
2011-12-04,1.0,8.3,4.6
2011-12-05,0.4,6.9,1
2011-12-06,1.0,8.1,0.6
2011-12-07,1.4,10.6,3.4
2011-12-08,2.4,12.7,3.3
2011-12-09,0.6,6.7,2.2
2011-12-10,0.6,7.7,-2.4
2011-12-11,4.6,8.4,0.3
2011-12-12,7.4,10.4,0.1
2011-12-13,5.2,5.9,2.2
2011-12-14,0.6,5.9,1.9
2011-12-15,9.4,7.7,1.4
2011-12-16,5.8,4.3,0.5
2011-12-17,2.6,5.3,-1.8
2011-12-18,0.4,6,-1
2011-12-19,3.2,8.1,-2.3
2011-12-20,4.6,11.8,2.5
2011-12-21,0.0,13.5,4.8
2011-12-22,0.0,12.6,8.4
2011-12-23,6.2,10.7,9.3
2011-12-24,0.0,10.6,2
2011-12-25,0.0,12.6,4.9
2011-12-26,0.0,13.1,10.4
2011-12-27,0.0,10.7,7.9
2011-12-28,0.0,8.4,7.2
2011-12-29,6.4,9.2,5.3
2011-12-30,3.2,12.1,3.5
2011-12-31,0.0,12.5,4.9
2012-01-01,1.0,11,9.5
2012-01-02,0.0,11.8,1.3
2012-01-03,8.4,9.5,2.6
2012-01-04,6.6,11.2,4.6
2012-01-05,1.6,9.5,6.2
2012-01-06,0.0,11.1,0
2012-01-07,0.0,9.9,0.6
2012-01-08,0.0,11.3,6.6
2012-01-09,0.0,11.2,6.5
2012-01-10,0.0,11.4,3.3
2012-01-11,0.0,11.7,6.9
2012-01-12,0.2,11.8,8.7
2012-01-13,0.2,7.2,-1.4
2012-01-14,0.2,3.6,-6.1
2012-01-15,0.0,5,-5.5
2012-01-16,0.0,4.5,-4.1
2012-01-17,0.2,9.3,-6.3
2012-01-18,0.0,12.6,-4.9
2012-01-19,5.4,9.2,4
2012-01-20,0.6,11.8,4
2012-01-21,0.2,11.4,7.6
2012-01-22,0.0,10.9,5.7
2012-01-23,1.6,8.1,2.4
2012-01-24,6.0,12,-0.6
2012-01-25,2.4,11.3,5
2012-01-26,2.6,7.1,2.1
2012-01-27,3.0,7.8,0.6
2012-01-28,0.0,6,0.6
2012-01-29,0.6,3.1,-2.7
2012-01-30,0.6,4,-0.8
2012-01-31,0.0,1.8,-5.5
2012-02-01,0.0,3.4,-3.1
2012-02-02,0.0,2.1,-5
2012-02-03,0.0,1.8,-8.6
2012-02-04,2.0,3.3,-9.2
2012-02-05,5.0,5.5,-4.7
2012-02-06,0.8,5.7,-0.5
2012-02-07,0.0,1.2,-3.2
2012-02-08,0.0,1.1,-7.2
2012-02-09,0.2,1.9,-3.6
2012-02-10,0.2,1.3,-2.7
2012-02-11,0.0,2.9,-3.8
2012-02-12,0.0,8,-2.5
2012-02-13,0.0,8.3,2.2
2012-02-14,0.0,9.2,2.9
2012-02-15,0.0,10.1,4.8
2012-02-16,0.0,10.2,2.7
2012-02-17,0.0,11.5,5.1
2012-02-18,3.8,9.1,7.3
2012-02-19,0.0,6.6,0.1
2012-02-20,0.0,8.6,-2.3
2012-02-21,0.0,11.4,3.6
2012-02-22,0.0,12.8,8
2012-02-23,0.0,15.4,9
2012-02-24,0.0,13.2,8.4
2012-02-25,0.0,11.2,1.3
2012-02-26,0.4,12.1,-0.9
2012-02-27,0.4,11.7,2.5
2012-02-28,0.0,12.5,8.6
2012-02-29,0.0,14.1,6.7
2012-03-01,0.4,13.8,-0.8
2012-03-02,0.0,12.5,0.5
2012-03-03,1.8,12.5,3.9
2012-03-04,9.6,6.9,3.3
2012-03-05,0.0,9.6,2.4
2012-03-06,1.4,10.9,-2.9
2012-03-07,0.6,10.8,1.8
2012-03-08,0,11.6,1.3
2012-03-09,0,12.6,7
2012-03-10,0.1,15.3,7.8
2012-03-11,0,14.1,4.1
2012-03-12,0.3,10.5,5.4
2012-03-13,0.1,9.1,5.2
2012-03-14,0.3,9.1,5.7
2012-03-15,0,8.6,-1.3
2012-03-16,1.2,10.9,2.6
2012-03-17,1.3,11.6,5.2
2012-03-18,0.1,11.4,-1
2012-03-19,0.1,12.1,-2
2012-03-20,0,14.3,3.7
2012-03-21,0.1,13.6,6.6
2012-03-22,0,15.9,2.3
2012-03-23,0.1,16.3,6.6
2012-03-24,0.1,18.9,2.7
2012-03-25,0.1,17.9,2.7
2012-03-26,0,18.9,0.1
2012-03-27,0,18.8,-0.2
2012-03-28,0,19.8,-0.4
2012-03-29,0,18.8,0.5
2012-03-30,0,13.8,5.4
2012-03-31,0,11.2,5.8
2012-04-01,0,14.2,-2.9
2012-04-02,1.3,11.8,-0.1
2012-04-03,5.6,10.9,5.2
2012-04-04,4.6,4.5,0.9
2012-04-05,0,8.8,2.1
2012-04-06,0.7,10.2,-3.3
2012-04-07,0.7,11.4,5.4
2012-04-08,2.1,13.3,7.5
2012-04-09,4.2,10.9,8
2012-04-10,0.4,11.3,3.6
2012-04-11,4.3,12.1,0.8
2012-04-12,0.6,13.3,3.2
2012-04-13,4.6,12.4,-1.9
2012-04-14,0.2,10.8,3.8
2012-04-15,0,10,-0.9
2012-04-16,3.1,11,-2
2012-04-17,2.1,12.8,5.9
2012-04-18,5.8,10.2,5.1
2012-04-19,3.2,11.6,5.2
2012-04-20,3.4,10.9,1.4
2012-04-21,1.9,12.2,-1.3
2012-04-22,1.9,12.6,2.7
2012-04-23,0.5,12.2,4.4
2012-04-24,7.7,12.2,2.9
2012-04-25,11.7,11.4,4
2012-04-26,9.5,13.1,5.5
2012-04-27,4.3,8.7,6.6
2012-04-28,8.5,9.8,5.1
2012-04-29,13,11.7,3.7
2012-04-30,4.7,17,4.3
2012-05-01,4.2,11.4,10
2012-05-02,3.6,16.2,8.2
2012-05-03,5.5,9.2,6.6
2012-05-04,0,10.3,6.3
2012-05-05,0,9.7,1.2
2012-05-06,0,11.4,2.9
2012-05-07,11.5,12.9,2.5
2012-05-08,0.2,16.2,5.4
2012-05-09,10.1,15.9,7.7
2012-05-10,0.5,18.7,10.7
2012-05-11,0.4,12.8,8.9
2012-05-12,0,14.5,2.3
2012-05-13,0.1,15.7,1.3
2012-05-14,1.8,14.5,7.9
2012-05-15,2.6,11.9,3.7
2012-05-16,0.3,13.6,0.8
2012-05-17,0.1,14.2,3.2
2012-05-18,5.2,15.6,8.2
2012-05-19,0.1,10.9,8
2012-05-20,0,13.7,7.4
2012-05-21,0,18.8,3.9
2012-05-22,0,23,5.6
2012-05-23,0,24.9,8.5
2012-05-24,0,24.8,11.1
2012-05-25,0,25.1,13.7
2012-05-26,0,24.9,12.3
2012-05-27,0,25.7,8.6
2012-05-28,0,24.6,10.1
2012-05-29,0,22.3,8.9
2012-05-30,3.1,22.6,7.9
2012-05-31,0.3,16.8,10.5
2012-06-01,0.5,19.7,11.4
2012-06-02,11.5,15.2,12.5
2012-06-03,10.6,11.4,8.5
2012-06-04,0,14.8,6.4
2012-06-05,2,15.9,5.7
2012-06-06,4.9,18.2,10.8
2012-06-07,9.4,15,10
2012-06-08,1.2,14.1,11.4
2012-06-09,0,15.7,9.5
2012-06-10,0.4,18,4.6
2012-06-11,3.1,14.8,10.5
2012-06-12,0,15,9.3
2012-06-13,0,17,6.7
2012-06-14,13.1,17.4,6.5
2012-06-15,6.9,16.4,10.4
2012-06-16,2.8,14.9,11.6
2012-06-17,3.5,16.4,10.7
2012-06-18,0.4,18.5,9.5
2012-06-19,0,18.9,9.1
2012-06-20,7.6,21.4,6.5
2012-06-21,7.2,16.6,9.9
2012-06-22,0.2,15.8,10.5
2012-06-23,4.3,17.5,10.4
2012-06-24,0.2,18.4,10.5
2012-06-25,0,20.3,9.3
2012-06-26,1.7,20.9,11.7
2012-06-27,9.1,23.8,15.3
2012-06-28,4.1,24,15.8
2012-06-29,1.1,19.4,12.7
2012-06-30,1.4,18.9,12.3
2012-07-01,1.8,17.8,7.6
2012-07-02,7,17.3,12.6
2012-07-03,3.2,17.5,13.3
2012-07-04,1.5,21.3,15.2
2012-07-05,9.9,22.1,10.9
2012-07-06,20.8,16.9,14.6
2012-07-07,1.6,18.9,11.8
2012-07-08,6.7,21.2,11.9
2012-07-09,11.1,18.5,12.7
2012-07-10,6.4,16,11.1
2012-07-11,0.4,18.2,9.4
2012-07-12,9.1,18.4,6.3
2012-07-13,8.3,18.7,12.5
2012-07-14,1.8,17.7,11.1
2012-07-15,1,17.6,9.3
2012-07-16,5.6,19.9,11.7
2012-07-17,0.4,20.6,13.6
2012-07-18,8.1,21.1,14.8
2012-07-19,0.2,17.4,11.5
2012-07-20,0,17.5,11.4
2012-07-21,0,20,6.2
2012-07-22,0.1,22.7,12.6
2012-07-23,0,24.5,12.6
2012-07-24,0,27.1,10.5
2012-07-25,0,25.2,12.7
2012-07-26,0,26.2,14.2
2012-07-27,0,21.6,12.6
2012-07-28,0.1,18.8,8.2
2012-07-29,0.1,18.4,9.2
2012-07-30,5.5,18.3,8
2012-07-31,0.3,18.4,9.4
2012-08-01,2.1,20,14
2012-08-02,5.9,20.6,10.9
2012-08-03,0.5,20.3,9
2012-08-04,2.6,20.8,13.1
2012-08-05,2.2,19.4,9.8
2012-08-06,2.7,19.4,8.3
2012-08-07,1,19.1,10.4
2012-08-08,0,22.3,13.9
2012-08-09,0,23.8,11.4
2012-08-10,0,25.3,9.1
2012-08-11,1.5,22.8,13.2
2012-08-12,1.6,21.9,13.3
2012-08-13,0.2,21.7,14.4
2012-08-14,0,24.1,13.8
2012-08-15,12.4,19.9,15.6
2012-08-16,1.6,21.1,13.9
2012-08-17,5.5,20.7,15.9
2012-08-18,0.1,23.7,15.3
2012-08-19,2.4,21.9,14.9
2012-08-20,0.1,23,12
2012-08-21,3.7,20.3,11.8
2012-08-22,0.9,20,11.2
2012-08-23,0.5,18.5,11.3
2012-08-24,4,18,11.5
2012-08-25,3.5,20.8,12.6
2012-08-26,0.2,19.9,9.5
2012-08-27,8.3,17.5,10.2
2012-08-28,6.4,20.1,10
2012-08-29,7.6,16.6,12
2012-08-30,0.9,17.9,10.1
2012-08-31,0,18.1,4.4
2012-09-01,0,21.2,12
2012-09-02,0.1,22.1,13.6
2012-09-03,0,22.8,7.4
2012-09-04,0,21.3,12.9
2012-09-05,0.1,18.7,5.8
2012-09-06,0,20.8,3.8
2012-09-07,0.1,23.2,9.7
2012-09-08,0.1,22.7,7.9
2012-09-09,0.5,23,4.6
2012-09-10,1.4,19.3,14.8
2012-09-11,0.1,16.3,9.2
2012-09-12,2.3,17.7,4.5
2012-09-13,0.1,17.1,4.9
2012-09-14,0.1,17.5,12
2012-09-15,0,18,4.5
2012-09-16,0.5,18.9,11.7
2012-09-17,1.6,16.6,5.4
2012-09-18,0.6,15.5,6.3
2012-09-19,0.9,15.5,4.3
2012-09-20,1.1,16.2,7
2012-09-21,2.1,13.8,10.5
2012-09-22,0.1,13.9,0.9
2012-09-23,47.5,11.4,4.5
2012-09-24,12.7,13.3,8.3
2012-09-25,11.7,12.3,8.7
2012-09-26,0.9,13.8,9.2
2012-09-27,0.2,15.7,5
2012-09-28,1.1,15.4,7.1
2012-09-29,0,15,5.3
2012-09-30,2.7,16.1,6.1
2012-10-01,1.8,15.6,8.9
2012-10-02,3.8,15.7,7.8
2012-10-03,0.3,14.6,6.7
2012-10-04,5.3,15.1,3.8
2012-10-05,4.7,12.1,8.8
2012-10-06,0.1,15.7,4
2012-10-07,0.4,13.8,2.3
2012-10-08,1.1,12.3,5.3
2012-10-09,0,12.3,4.7
2012-10-10,0.4,12.9,7.6
2012-10-11,14.2,13.1,8.9
2012-10-12,0,12.8,7.9
2012-10-13,1,11.6,2.2
2012-10-14,0.1,12.3,-1.9
2012-10-15,3.2,13.1,2.5
2012-10-16,6.9,13.3,7.5
2012-10-17,6.1,15.5,4.5
2012-10-18,0.5,15.2,8.9
2012-10-19,0.1,13.3,4
2012-10-20,0.1,14.2,3
2012-10-21,1.4,13.3,3.1
2012-10-22,1.3,12.6,6
2012-10-23,0.1,13.4,10.7
2012-10-24,0,13.7,11.9
2012-10-25,0.1,11.2,9.8
2012-10-26,0,8.5,4.5
2012-10-27,1,8.5,-0.2
2012-10-28,1.1,10.4,-0.1
2012-10-29,0.4,12.3,4.3
2012-10-30,0,10.5,2.4
2012-10-31,10.4,11.6,5.4
2012-11-01,1.6,8.6,2.2
2012-11-02,1.5,9.9,2.5
2012-11-03,1.3,9.2,-0.4
2012-11-04,1.5,7,-1
2012-11-05,0,9.1,0.9
2012-11-06,0.5,10.3,-0.7
2012-11-07,0,10.9,0.5
2012-11-08,0,11.8,3.8
2012-11-09,3.1,11,7.6
2012-11-10,0.5,10.5,3.1
2012-11-11,0.6,10.8,-1.2
2012-11-12,1.9,12.8,1.4
2012-11-13,0,13.9,7.7
2012-11-14,0.1,12.6,9.7
2012-11-15,0,7.8,3.4
2012-11-16,10.2,8.5,1.2
2012-11-17,0.1,9.8,2.8
2012-11-18,0.2,8.8,-3.4
2012-11-19,1.3,13.1,-0.6
2012-11-20,17.7,14.8,8.7
2012-11-21,5.1,11.7,5.8
2012-11-22,12,13.1,3.5
2012-11-23,1,10,2.2
2012-11-24,27.4,8.2,-1.9
2012-11-25,2.5,9.9,0.5
2012-11-26,10.2,8.3,4.1
2012-11-27,0.2,7.7,4.6
2012-11-28,0,6.4,4.5
2012-11-29,0.2,4.9,-3.5
2012-11-30,0.5,5.1,-3.3
2012-12-01,0.4,6.6,-3.4
2012-12-02,5.6,8.4,-3.5
2012-12-03,0.2,8.8,0.5
2012-12-04,1.5,7.1,0.9
2012-12-05,0,4.9,-0.8
2012-12-06,9.1,5.6,-5.1
2012-12-07,0.6,7.1,-2.1
2012-12-08,0.1,8.1,-0.4
2012-12-09,0.1,9.3,0.6
2012-12-10,0.1,5.3,-0.3
2012-12-11,0.1,1.4,-5.6
2012-12-12,0,-1,-4.6
2012-12-13,0.9,3.3,-5.9
2012-12-14,12.1,8.2,-3.3
2012-12-15,0.9,10.2,3.3
2012-12-16,3.3,8.6,0.6
2012-12-17,3.5,8.8,1.2
2012-12-18,0.1,8.7,1.8
2012-12-19,21.1,7.6,-0.1
2012-12-20,9,9.2,5
2012-12-21,8.8,9.5,4.2
2012-12-22,6.5,13.4,3.2
2012-12-23,2.9,10.5,7.5
2012-12-24,8.7,8,5
2012-12-25,0.9,8.6,3.2
2012-12-26,9,9.7,2.6
2012-12-27,4.9,8.6,4.1
2012-12-28,4.7,12.4,2.3
2012-12-29,7.2,9.2,8.3
2012-12-30,1.4,11.2,3.6
2012-12-31,4.4,10.8,4.7
